When you browse on this site, cookies collect data to enhance your experience and personalize the content and advertising you see.
Visit our Privacy Policy to learn more. By continuing to use the site, you agree to this use of cookies and data.
  • în România
  • Lista ţărilor
  • Pe 7 zile
  • Temperatura apei
  • Meteo pe hartă
  • Widget-uri
  • user-avatar
    Intrare

    Meteo pe oră la Zaragoza

    Astăzi, 19 Ianuarie, Duminică

    Timp Temperatura Precipitaţii Vânt Presiune Umiditate
    00:00 +7°C° 0 mm 4 m/s 746 mmHg 84%
    01:00 +7°C° 0.1 mm 4 m/s 746 mmHg 85%
    02:00 +7°C° 0.1 mm 4 m/s 746 mmHg 86%
    03:00 +6°C° 0.1 mm 5 m/s 746 mmHg 87%
    04:00 +6°C° 0.5 mm 5 m/s 746 mmHg 87%
    05:00 +7°C° 0.5 mm 5 m/s 746 mmHg 88%
    06:00 +7°C° 0.5 mm 5 m/s 746 mmHg 89%
    07:00 +7°C° 0.2 mm 5 m/s 746 mmHg 87%
    08:00 +7°C° 0.2 mm 5 m/s 747 mmHg 84%
    09:00 +7°C° 0.2 mm 5 m/s 747 mmHg 82%
    10:00 +7°C° 0.3 mm 6 m/s 748 mmHg 75%
    11:00 +6°C° 0.3 mm 7 m/s 748 mmHg 68%
    12:00 +7°C° 0.3 mm 8 m/s 749 mmHg 61%
    13:00 +7°C° 0 mm 9 m/s 749 mmHg 54%
    14:00 +8°C° 0 mm 9 m/s 749 mmHg 47%
    15:00 +10°C° 0 mm 9 m/s 749 mmHg 40%
    16:00 +7°C° 0 mm 9 m/s 749 mmHg 43%
    17:00 +5°C° 0 mm 9 m/s 749 mmHg 46%
    18:00 +2°C° 0 mm 9 m/s 750 mmHg 49%
    19:00 +2°C° 0 mm 8 m/s 750 mmHg 53%
    20:00 +2°C° 0 mm 7 m/s 751 mmHg 57%
    21:00 +2°C° 0 mm 5 m/s 751 mmHg 61%
    22:00 +1°C° 0 mm 5 m/s 751 mmHg 63%
    23:00 +1°C° 0 mm 5 m/s 752 mmHg 65%

    Mâine, 20 Ianuarie, Luni

    Timp Temperatura Precipitaţii Vânt Presiune Umiditate
    00:00 0°C° 0 mm 5 m/s 752 mmHg 67%
    01:00 0°C° 0 mm 5 m/s 752 mmHg 68%
    02:00 -1°C° 0 mm 6 m/s 751 mmHg 68%
    03:00 -1°C° 0 mm 6 m/s 751 mmHg 69%
    04:00 -1°C° 0 mm 6 m/s 751 mmHg 69%
    05:00 -2°C° 0 mm 6 m/s 751 mmHg 70%
    06:00 -2°C° 0 mm 6 m/s 752 mmHg 70%
    07:00 -1°C° 0 mm 7 m/s 752 mmHg 68%
    08:00 -1°C° 0 mm 7 m/s 752 mmHg 66%
    09:00 -1°C° 0 mm 7 m/s 752 mmHg 65%
    10:00 0°C° 0 mm 7 m/s 751 mmHg 62%
    11:00 +1°C° 0 mm 8 m/s 751 mmHg 60%
    12:00 +2°C° 0 mm 8 m/s 751 mmHg 58%
    13:00 +2°C° 0 mm 8 m/s 751 mmHg 57%
    14:00 +4°C° 0 mm 8 m/s 750 mmHg 55%
    15:00 +4°C° 0 mm 7 m/s 750 mmHg 53%
    16:00 +3°C° 0 mm 7 m/s 750 mmHg 57%
    17:00 +2°C° 0 mm 7 m/s 750 mmHg 62%
    18:00 0°C° 0 mm 7 m/s 751 mmHg 67%
    19:00 +1°C° 0 mm 6 m/s 751 mmHg 69%
    20:00 -1°C° 0 mm 6 m/s 751 mmHg 71%
    21:00 -1°C° 0 mm 6 m/s 751 mmHg 73%
    22:00 -1°C° 0 mm 6 m/s 751 mmHg 74%
    23:00 0°C° 0 mm 5 m/s 750 mmHg 75%

    Poimâine, 21 Ianuarie, Marţi

    Timp Temperatura Precipitaţii Vânt Presiune Umiditate
    00:00 0°C° 0 mm 5 m/s 750 mmHg 76%
    01:00 0°C° 0.4 mm 5 m/s 750 mmHg 78%
    02:00 0°C° 0.4 mm 5 m/s 750 mmHg 81%
    03:00 0°C° 0.4 mm 5 m/s 750 mmHg 84%
    04:00 0°C° 0.8 mm 5 m/s 749 mmHg 85%
    05:00 0°C° 0.8 mm 5 m/s 749 mmHg 87%
    06:00 0°C° 0.8 mm 5 m/s 748 mmHg 88%
    07:00 0°C° 2.5 mm 5 m/s 748 mmHg 90%
    08:00 +1°C° 2.5 mm 5 m/s 748 mmHg 93%
    09:00 +1°C° 2.5 mm 5 m/s 748 mmHg 96%
    10:00 +2°C° 1.8 mm 5 m/s 748 mmHg 94%
    11:00 +3°C° 1.8 mm 6 m/s 747 mmHg 93%
    12:00 +4°C° 1.8 mm 6 m/s 747 mmHg 92%
    13:00 +4°C° 0.6 mm 7 m/s 746 mmHg 91%
    14:00 +5°C° 0.6 mm 8 m/s 746 mmHg 90%
    15:00 +6°C° 0.6 mm 9 m/s 746 mmHg 89%
    16:00 +6°C° 1.2 mm 9 m/s 746 mmHg 88%
    17:00 +7°C° 1.2 mm 9 m/s 746 mmHg 86%
    18:00 +7°C° 1.2 mm 9 m/s 745 mmHg 85%
    19:00 +7°C° 3.3 mm 9 m/s 746 mmHg 87%
    20:00 +7°C° 3.3 mm 9 m/s 746 mmHg 89%
    21:00 +7°C° 3.3 mm 9 m/s 746 mmHg 91%
    22:00 +7°C° 3.9 mm 8 m/s 746 mmHg 91%
    23:00 +8°C° 3.9 mm 7 m/s 746 mmHg 92%

    22 Ianuarie, Miercuri

    Timp Temperatura Precipitaţii Vânt Presiune Umiditate
    00:00 +7°C° 3.9 mm 6 m/s 746 mmHg 92%
    01:00 +7°C° 3.4 mm 5 m/s 746 mmHg 93%
    02:00 +7°C° 3.4 mm 5 m/s 745 mmHg 94%
    03:00 +6°C° 3.4 mm 4 m/s 745 mmHg 95%
    04:00 +6°C° 1 mm 4 m/s 745 mmHg 95%
    05:00 +7°C° 1 mm 3 m/s 745 mmHg 95%
    06:00 +7°C° 1 mm 3 m/s 745 mmHg 95%
    07:00 +8°C° 0.1 mm 3 m/s 746 mmHg 94%
    08:00 +8°C° 0.1 mm 2 m/s 746 mmHg 93%
    09:00 +8°C° 0.1 mm 2 m/s 746 mmHg 92%
    10:00 +9°C° 0.1 mm 2 m/s 746 mmHg 90%
    11:00 +9°C° 0.1 mm 2 m/s 746 mmHg 88%
    12:00 +10°C° 0.1 mm 3 m/s 745 mmHg 86%
    13:00 +9°C° 0.4 mm 2 m/s 745 mmHg 87%
    14:00 +9°C° 0.4 mm 2 m/s 745 mmHg 88%
    15:00 +9°C° 0.4 mm 2 m/s 745 mmHg 89%
    16:00 +8°C° 0 mm 2 m/s 745 mmHg 90%
    17:00 +8°C° 0 mm 2 m/s 745 mmHg 91%
    18:00 +7°C° 0 mm 2 m/s 745 mmHg 92%
    19:00 +7°C° 0 mm 2 m/s 746 mmHg 92%
    20:00 +8°C° 0 mm 1 m/s 746 mmHg 92%
    21:00 +7°C° 0 mm 1 m/s 746 mmHg 92%
    22:00 +7°C° 0 mm 1 m/s 746 mmHg 92%
    23:00 +6°C° 0 mm 1 m/s 747 mmHg 92%

    23 Ianuarie, Joi

    Timp Temperatura Precipitaţii Vânt Presiune Umiditate
    00:00 +5°C° 0 mm 0 m/s 747 mmHg 92%
    01:00 +5°C° 0 mm 0 m/s 747 mmHg 92%
    02:00 +5°C° 0 mm 1 m/s 747 mmHg 92%
    03:00 +5°C° 0 mm 1 m/s 747 mmHg 92%
    04:00 +5°C° 0 mm 1 m/s 747 mmHg 92%
    05:00 +5°C° 0 mm 1 m/s 747 mmHg 92%
    06:00 +5°C° 0 mm 1 m/s 747 mmHg 92%
    07:00 +5°C° 0 mm 1 m/s 747 mmHg 90%
    08:00 +6°C° 0 mm 1 m/s 747 mmHg 89%
    09:00 +7°C° 0 mm 1 m/s 748 mmHg 87%
    10:00 +8°C° 0 mm 1 m/s 747 mmHg 84%
    11:00 +8°C° 0 mm 2 m/s 747 mmHg 80%
    12:00 +9°C° 0 mm 2 m/s 747 mmHg 77%
    13:00 +10°C° 0 mm 2 m/s 747 mmHg 75%
    14:00 +10°C° 0 mm 3 m/s 747 mmHg 74%
    15:00 +11°C° 0 mm 3 m/s 746 mmHg 73%
    16:00 +10°C° 0 mm 2 m/s 746 mmHg 78%
    17:00 +9°C° 0 mm 2 m/s 747 mmHg 83%
    18:00 +8°C° 0 mm 1 m/s 747 mmHg 88%
    19:00 +8°C° 0 mm 1 m/s 747 mmHg 88%
    20:00 +8°C° 0 mm 1 m/s 747 mmHg 89%
    21:00 +7°C° 0 mm 1 m/s 747 mmHg 90%
    22:00 +6°C° 0 mm 0 m/s 747 mmHg 90%
    23:00 +5°C° 0 mm 0 m/s 747 mmHg 90%

    24 Ianuarie, Vineri

    Timp Temperatura Precipitaţii Vânt Presiune Umiditate
    00:00 +5°C° 0 mm 0 m/s 747 mmHg 90%
    01:00 +5°C° 0 mm 0 m/s 747 mmHg 89%
    02:00 +5°C° 0 mm 0 m/s 746 mmHg 89%
    03:00 +4°C° 0 mm 0 m/s 746 mmHg 88%
    04:00 +4°C° 0 mm 0 m/s 746 mmHg 88%
    05:00 +4°C° 0 mm 0 m/s 746 mmHg 87%
    06:00 +4°C° 0 mm 0 m/s 746 mmHg 86%
    07:00 +5°C° 0 mm 0 m/s 746 mmHg 84%
    08:00 +6°C° 0 mm 0 m/s 746 mmHg 81%
    09:00 +7°C° 0 mm 0 m/s 747 mmHg 78%
    10:00 +9°C° 0 mm 1 m/s 746 mmHg 73%
    11:00 +10°C° 0 mm 1 m/s 746 mmHg 68%
    12:00 +11°C° 0 mm 1 m/s 746 mmHg 63%
    13:00 +12°C° 0 mm 1 m/s 746 mmHg 63%
    14:00 +12°C° 0 mm 1 m/s 745 mmHg 63%
    15:00 +12°C° 0 mm 1 m/s 745 mmHg 63%
    16:00 +11°C° 0 mm 1 m/s 745 mmHg 67%
    17:00 +10°C° 0 mm 1 m/s 745 mmHg 72%
    18:00 +8°C° 0 mm 2 m/s 746 mmHg 77%
    19:00 +7°C° 0 mm 2 m/s 746 mmHg 77%
    20:00 +7°C° 0 mm 2 m/s 746 mmHg 78%
    21:00 +7°C° 0 mm 2 m/s 747 mmHg 78%
    22:00 +7°C° 0 mm 2 m/s 747 mmHg 78%
    23:00 +6°C° 0 mm 2 m/s 747 mmHg 78%
    Arată mai mult